SCP
1 1 2 2 3 4 4 5 6 6 5 3 3 4 3 3 3 3 3 2 2 2
2 2 2 2 5 6 6 5 5 5 5 4 3 3 3 3 3 2 3 3 3 4
3 3 2 3 3 3 3 4 4 4 4 3 3 3 3 3 3 3 2 2 2 2
5 4 4 4 4 3 3 5 6 4 4 4 3 2 3 2 2 2 2 2 1 1
5 4 4 4 3 3 4 4 5 4 3 2 3 2 3 2 2 1 1 1 2 1
4 5 4 3 3 3 5 3 3 3 3 3 2 3 2 2 2 1 1 1 2 1
3 3 3 6 9 8 5 4 4 4 3 3 2 2 2 2 2 2 1 1 1 1
6 7 8 9 10 9 7 5 5 4 3 1 1 1 1 1 1 1 1 1 0 0
8 10 11 13 11 9 8 7 4 2 1 1 1 0 0 1 1 1 1 0 0 0
10 10 12 10 10 8 8 7 4 1 1 1 1 0 0 0 1 1 0 0 0 0
11 12 11 10 10 8 7 5 3 2 1 1 1 0 0 0 0 0 0 0 0 0
6 7 7 7 5 3 1 3 4 2 1 1 1 0 0 0 0 0 0 0 0 0
6 6 6 6 5 5 1 1 2 2 1 1 1 0 0 0 0 1 0 0 0 0
5 4 5 6 4 4 2 2 3 2 2 1 1 0 0 0 0 0 0 0 0 0
Wind_Speed_500mb
18 20 21 23 26 31 36 43 46 46 47 68 66 70 71 73 81 79 81 79 77 82
22 24 22 21 31 41 42 46 49 50 56 56 66 72 70 74 74 74 77 83 79 79
21 18 17 23 29 32 34 35 40 45 57 65 63 62 64 69 71 71 75 73 73 74
20 20 23 29 29 32 36 39 43 46 55 61 58 61 66 69 72 71 70 71 75 78
23 23 27 29 31 33 41 41 41 46 50 48 49 50 57 68 68 63 65 66 68 68
24 25 27 30 33 36 45 43 42 46 44 47 48 49 51 50 53 54 51 52 54 58
28 30 31 35 42 43 41 42 46 48 45 51 48 45 47 33 31 38 42 46 46 48
38 41 46 45 48 43 42 43 44 45 49 46 47 43 37 38 38 31 30 32 27 24
43 42 51 57 52 53 43 50 43 39 40 39 37 30 31 35 25 31 24 18 16 14
51 58 62 60 51 58 48 51 47 40 37 38 35 35 35 30 35 27 19 15 17 20
58 62 56 61 59 56 53 54 51 39 36 39 37 36 30 31 33 25 21 21 17 14
54 57 60 65 69 58 59 53 63 46 40 36 42 40 41 39 37 34 28 26 18 15
55 59 65 72 67 71 49 69 56 49 34 37 43 44 44 43 43 46 40 31 22 16
63 71 73 77 71 57 53 40 50 52 42 37 41 46 41 41 52 44 40 35 24 17
Wind_Direction_500mb
221 238 255 269 275 274 269 260 261 269 274 263 262 265 268 268 264 259 253 257 258 256
226 235 244 249 254 263 269 272 273 268 270 271 269 269 270 268 268 262 257 259 259 256
241 255 272 293 299 285 292 292 286 280 271 268 270 270 268 267 268 264 260 255 253 255
252 266 282 290 291 293 290 288 291 289 281 274 268 264 268 269 270 267 265 262 259 259
249 261 276 280 282 280 283 287 293 293 292 284 278 275 262 264 267 266 264 262 260 259
249 271 287 286 283 281 281 293 298 299 286 282 274 270 272 267 265 265 264 261 259 261
263 268 269 265 267 280 288 282 289 294 286 280 278 271 270 258 257 265 264 265 266 258
254 256 260 272 281 281 286 288 287 287 290 287 278 274 264 258 263 265 262 263 260 262
268 263 264 272 280 280 279 285 293 292 289 282 275 264 255 261 253 242 238 235 230 214
273 270 275 277 272 270 269 277 286 290 286 273 262 257 263 252 230 225 204 213 211 206
273 270 269 274 269 269 268 272 282 285 281 268 258 251 248 229 222 215 216 197 188 191
283 280 278 276 278 278 289 270 275 282 279 262 254 248 240 223 221 214 202 190 186 171
289 289 284 278 283 271 263 266 270 277 277 263 260 249 240 228 219 215 208 208 199 224
293 291 286 284 286 280 275 265 269 273 274 274 258 253 242 229 216 212 209 210 216 244
Wind_Speed_850mb
18 20 21 23 26 31 36 43 46 46 47 68 66 70 71 73 81 79 81 79 77 82
22 24 22 21 31 41 42 46 49 50 56 56 66 72 70 74 74 74 77 83 79 79
21 18 17 23 29 32 34 35 40 45 57 65 63 62 64 69 71 71 75 73 73 74
20 20 23 29 29 32 36 39 43 46 55 61 58 61 66 69 72 71 70 71 75 78
23 23 27 29 31 33 41 41 41 46 50 48 49 50 57 68 68 63 65 66 68 68
24 25 27 30 33 36 45 43 42 46 44 47 48 49 51 50 53 54 51 52 54 58
28 30 31 35 42 43 41 42 46 48 45 51 48 45 47 33 31 38 42 46 46 48
38 41 46 45 48 43 42 43 44 45 49 46 47 43 37 38 38 31 30 32 27 24
43 42 51 57 52 53 43 50 43 39 40 39 37 30 31 35 25 31 24 18 16 14
51 58 62 60 51 58 48 51 47 40 37 38 35 35 35 30 35 27 19 15 17 20
58 62 56 61 59 56 53 54 51 39 36 39 37 36 30 31 33 25 21 21 17 14
54 57 60 65 69 58 59 53 63 46 40 36 42 40 41 39 37 34 28 26 18 15
55 59 65 72 67 71 49 69 56 49 34 37 43 44 44 43 43 46 40 31 22 16
63 71 73 77 71 57 53 40 50 52 42 37 41 46 41 41 52 44 40 35 24 17
Wind_Direction_850mb
221 238 255 269 275 274 269 260 261 269 274 263 262 265 268 268 264 259 253 257 258 256
226 235 244 249 254 263 269 272 273 268 270 271 269 269 270 268 268 262 257 259 259 256
241 255 272 293 299 285 292 292 286 280 271 268 270 270 268 267 268 264 260 255 253 255
252 266 282 290 291 293 290 288 291 289 281 274 268 264 268 269 270 267 265 262 259 259
249 261 276 280 282 280 283 287 293 293 292 284 278 275 262 264 267 266 264 262 260 259
249 271 287 286 283 281 281 293 298 299 286 282 274 270 272 267 265 265 264 261 259 261
263 268 269 265 267 280 288 282 289 294 286 280 278 271 270 258 257 265 264 265 266 258
254 256 260 272 281 281 286 288 287 287 290 287 278 274 264 258 263 265 262 263 260 262
268 263 264 272 280 280 279 285 293 292 289 282 275 264 255 261 253 242 238 235 230 214
273 270 275 277 272 270 269 277 286 290 286 273 262 257 263 252 230 225 204 213 211 206
273 270 269 274 269 269 268 272 282 285 281 268 258 251 248 229 222 215 216 197 188 191
283 280 278 276 278 278 289 270 275 282 279 262 254 248 240 223 221 214 202 190 186 171
289 289 284 278 283 271 263 266 270 277 277 263 260 249 240 228 219 215 208 208 199 224
293 291 286 284 286 280 275 265 269 273 274 274 258 253 242 229 216 212 209 210 216 244